Location: Most
(50.5133°N, 13.6207°E)
Time: 09:40:36
(UTC+01:00)

Oscar 11 - Pass Details

Date: 29 November 2022
Orbit: 611 x 621 km, 97.6° (Epoch: 28 January)

Event Time Altitude Azimuth Distance (km) Brightness Sun altitude
Rises 06:11:35 0° 2° (N) 2,894 10.3 -13.7°
Reaches altitude 10° 06:14:13 10° 346° (NNW) 1,982 9.3 -13.3°
Maximum altitude 06:17:21 20° 299° (WNW) 1,429 8.3 -12.8°
Enters shadow 06:18:09 19° 284° (WNW) 1,470 8.3 -12.7°
